Location: Newark
(5.8900°S, 42.6378°W)
Time: 07:00:43
(UTC+00:00)

Vanguard 1 Rocket - Pass Details

Date: 26 October 2019
Orbit: 651 x 4225 km, 34.3° (Epoch: 14 November)

Event Time Altitude Azimuth Distance (km) Brightness Sun altitude
Rises 05:44:06 0° 211° (SSW) 3,172 - -39.5°
Reaches altitude 10° 05:47:29 10° 188° (S) 2,082 - -38.7°
Maximum altitude 05:50:13 16° 149° (SSE) 1,704 - -38.1°
Exits shadow 05:51:07 15° 135° (SE) 1,755 9.4 -37.9°
Drops below altitude 10° 05:52:59 10° 111° (ESE) 2,114 10.0 -37.4°
Sets 05:56:27 0° 87° (E) 3,250 11.1 -36.6°
